Dewpoint
47 49 52 55 57 58 59 60 61 62 64 64 68 68 68 69 70 70 70 70 70 70 70 70 70 71 72 72 73 74 74 73 72
45 48 50 53 55 57 58 61 62 63 64 65 68 68 68 68 69 71 72 71 70 70 71 71 71 72 72 72 73 73 73 73 72
44 45 48 51 52 55 58 58 62 64 65 66 66 69 69 68 69 70 70 73 73 72 72 71 72 72 72 72 73 74 74 74 72
43 44 46 48 51 54 57 57 59 64 66 67 67 69 69 70 70 71 70 71 72 72 72 73 72 73 73 73 74 74 74 73 71
43 44 45 46 48 52 56 56 57 62 66 67 68 70 70 71 71 72 72 72 71 72 72 73 73 73 73 73 74 73 72 72 73
44 43 45 46 47 49 53 54 55 60 64 67 67 69 70 72 73 73 73 73 73 73 73 73 73 72 72 73 73 72 73 73 73
42 42 43 46 47 47 51 53 54 58 62 66 67 69 70 70 72 73 73 73 74 73 73 73 73 73 73 73 72 73 74 72 71
36 38 41 44 47 48 51 52 54 57 61 66 67 70 70 70 71 72 73 73 73 73 73 72 72 72 72 73 73 74 72 70 69
31 34 40 44 47 50 52 53 55 59 62 66 68 69 70 71 71 72 72 72 71 71 71 72 73 73 73 70 73 70 70 69 68
32 32 37 44 50 52 53 55 56 59 64 67 68 69 70 70 71 71 71 71 71 72 73 72 71 68 65 62 62 65 68 69 67
32 31 32 41 49 55 56 57 59 62 66 67 68 68 68 69 70 71 72 72 72 71 69 68 65 62 62 62 64 63 63 66 65
36 34 33 38 49 59 66 65 67 68 68 68 68 68 68 70 72 72 70 66 65 67 65 64 62 62 62 64 63 62 63 63 62
36 39 38 44 63 67 70 70 69 68 68 68 68 71 72 71 70 68 67 64 63 65 66 62 64 64 65 63 64 63 62 62 60
37 41 58 65 66 70 71 69 68 68 69 70 71 70 69 69 66 64 65 66 66 67 66 65 64 65 65 65 65 65 61 60 57
50 63 66 67 70 70 70 69 70 70 69 69 68 67 67 66 67 68 68 67 66 66 65 65 64 65 65 65 62 57 57 56 56
62 66 68 70 70 70 71 71 70 68 67 67 66 64 63 64 66 65 66 66 65 65 65 65 65 64 63 60 55 52 53 53 53
67 69 70 68 68 68 69 68 67 66 66 65 65 64 64 65 65 65 66 66 66 65 65 64 63 60 55 54 50 49 49 48 48
67 67 65 66 66 65 63 63 62 62 62 62 62 61 62 64 64 64 63 59 51 61 51 57 53 50 50 48 47 47 47 46 47
62 61 62 62 62 61 61 61 61 61 62 62 61 61 61 61 58 56 59 56 48 48 47 46 46 46 46 47 47 46 44 44 44
60 61 60 60 60 60 60 60 60 61 62 62 61 61 59 59 58 56 55 54 49 47 47 46 45 44 45 45 44 44 43 43 43
Lifted_Index
2 2 2 1 1 0 -0 -0 -1 -1 -1 -1 -2 -2 -2 -2 -3 -3 -4 -4 -4 -4 -5 -5 -5 -5 -6 -7 -7 -7 -8 -8 -8
2 2 2 1 1 1 0 -0 -1 -1 -1 -1 -2 -2 -2 -2 -3 -3 -4 -5 -5 -5 -5 -5 -5 -5 -6 -6 -7 -7 -7 -8 -8
1 1 1 2 1 1 0 -0 -1 -1 -1 -2 -2 -2 -3 -3 -3 -4 -4 -5 -5 -5 -6 -6 -5 -6 -6 -7 -7 -7 -7 -7 -7
1 1 1 1 1 1 0 0 -0 -1 -2 -2 -2 -3 -3 -4 -4 -4 -4 -5 -5 -6 -6 -6 -6 -6 -7 -7 -7 -8 -8 -7 -7
1 1 1 1 1 1 0 0 -0 -1 -2 -3 -3 -4 -4 -5 -5 -5 -5 -5 -5 -6 -6 -6 -7 -7 -7 -7 -8 -8 -8 -8 -8
1 1 1 1 1 1 0 -0 -1 -1 -2 -3 -3 -4 -5 -5 -6 -6 -6 -6 -6 -6 -6 -7 -7 -7 -8 -8 -8 -8 -8 -8 -8
0 0 0 1 1 0 0 -0 -1 -1 -2 -3 -4 -4 -5 -5 -6 -7 -7 -7 -7 -7 -7 -7 -7 -8 -8 -8 -8 -8 -8 -8 -8
0 0 0 0 0 0 -0 -0 -1 -1 -2 -3 -4 -5 -5 -6 -6 -7 -7 -7 -7 -8 -8 -8 -8 -8 -8 -8 -8 -8 -8 -7 -6
0 0 0 0 0 0 -0 -0 -1 -1 -2 -3 -4 -5 -5 -6 -6 -6 -7 -7 -7 -8 -8 -8 -8 -8 -8 -7 -7 -6 -6 -5 -4
1 0 0 0 1 0 -0 -1 -1 -2 -3 -4 -5 -5 -6 -6 -6 -6 -7 -7 -7 -8 -8 -7 -7 -7 -7 -5 -4 -3 -3 -3 -2
1 0 0 0 0 -0 -1 -2 -2 -3 -4 -5 -5 -5 -6 -6 -6 -6 -7 -7 -6 -6 -7 -7 -6 -6 -4 -2 -1 -1 -1 -1 -1
0 0 0 0 -0 -2 -3 -3 -4 -4 -5 -5 -5 -5 -6 -6 -6 -6 -7 -6 -4 -3 -5 -6 -5 -4 -2 -1 -0 -0 -0 0 1
0 0 0 -0 -2 -3 -5 -5 -5 -5 -5 -5 -5 -5 -6 -6 -6 -6 -6 -5 -2 -1 -2 -4 -3 -2 -2 -1 -1 -0 0 1 2
0 0 -0 -1 -3 -5 -5 -6 -6 -5 -5 -5 -6 -6 -6 -6 -6 -6 -5 -4 -2 -0 -0 -1 -2 -2 -2 -1 -1 -0 1 2 3
-1 -1 -2 -3 -4 -5 -6 -6 -6 -6 -6 -6 -6 -6 -7 -6 -6 -5 -4 -3 -2 -1 -0 -0 -0 -1 -1 -1 -1 0 1 2 2
-3 -4 -4 -5 -5 -5 -6 -6 -6 -6 -6 -6 -6 -6 -6 -5 -4 -3 -2 -2 -1 -1 -1 -1 -1 -1 -1 -1 -0 1 1 2 2
-5 -5 -5 -5 -5 -5 -6 -6 -6 -6 -6 -6 -5 -4 -3 -2 -2 -1 -1 -1 -1 -2 -1 -1 -1 -1 -0 0 1 1 2 2 3
-5 -5 -5 -5 -5 -6 -6 -6 -6 -5 -4 -3 -2 -2 -1 -1 -0 -1 -1 -1 -1 -0 0 1 1 1 1 1 2 2 3 3 4
-5 -5 -5 -6 -6 -6 -6 -5 -4 -3 -2 -1 -1 -0 -0 -0 -0 -0 -0 -0 0 1 2 2 2 2 2 3 3 4 4 5 5
-5 -5 -6 -7 -7 -7 -6 -4 -2 -1 0 0 -0 -0 0 0 0 0 0 -0 1 2 2 2 2 2 3 4 4 5 6 6 7